Location: N�rnberg
(49.4489°N, 11.0797°E)
Time: 08:44:54
(UTC+01:00)

ISS - Visible Passes

Search period start: 25 February 2018 00:00
Search period end: 07 March 2018 00:00
Orbit: 402 x 407 km, 51.6° (Epoch: 25 February)

Date Brightness Start Highest point End Pass type
(mag) Time Alt. Az. Time Alt. Az. Time Alt. Az.
26 Feb -0.9 06:25:02 10° S 06:27:09 16° SE 06:29:16 10° E visible
28 Feb -2.0 06:15:54 10° SSW 06:18:50 30° SE 06:21:44 10° E visible
01 Mar -1.4 05:24:19 10° S 05:26:43 19° SE 05:29:07 10° E visible
02 Mar -1.0 04:34:12 11° SE 04:34:40 12° SE 04:35:53 10° ESE visible
02 Mar -3.2 06:07:21 10° SW 06:10:33 54° SSE 06:13:46 10° ENE visible
03 Mar -2.5 05:16:53 23° SSW 05:18:21 35° SSE 05:21:22 10° E visible
04 Mar -1.6 04:26:47 21° SE 04:26:47 21° SE 04:28:49 10° E visible
04 Mar -3.8 05:59:26 13° WSW 06:02:21 89° SE 06:05:39 10° ENE visible
05 Mar -3.6 05:09:14 44° SW 05:10:02 63° SSE 05:13:17 10° ENE visible
06 Mar -1.9 04:18:58 28° E 04:18:58 28° E 04:20:52 10° ENE visible
06 Mar -3.7 05:51:36 15° W 05:54:10 66° N 05:57:26 10° ENE visible
